Tracking 26006 objects as of 17-Aug-2022
HD Live streaming from Space Station
objects crossing your sky now

OBJECT H

Track OBJECT H now!
10-day predictions


NORAD ID: 47939
Int'l Code: 2021-022H
Perigee: 533.6 km
Apogee: 555.5 km
Inclination: 97.5 °
Period: 95.4 minutes
Semi major axis: 6915 km
RCS: Unknown
Launch date: March 22, 2021
Source: (TBD)
Launch site: TYURATAM MISSILE AND SPACE COMPLEX (TTMTR)

Note: This is a ROCKET BODY
aabbcc
Your satellite tracking list
Your tracking list is empty




NASA's NSSDC Master Catalog

Two Line Element Set (TLE):
1 47939U 21022H   22229.44227987  .00004691  00000-0  29504-3 0  9992
2 47939  97.5223 128.5813 0015802 287.3420 158.9990 15.09598340 77270
Source of the keplerian elements: AFSPC